BREEZE-KM R/B, 44909

Orbit data source: Space-Track

BREEZE-KM R/B, 44909 is space debris in LEO originally from a launch on Thu, 26 Dec 2019 UTC via an ROKOT launch vehicle from the Plesetsk Missile And Space Complex (PKMTR). Debris objects in space refer to the collection of defunct objects orbiting the Earth. Examples of debris include non-operational satellites, rocket bodies, and fragments generated from explosions, collisions, or faulty payload assembly.

Loading next visibility...
Identifier
44909, 2019-096E
Orbit
LEO
Country
Flag of CISCIS
Related business
Manufacturer
SNIU/RESH
Mission
Operational spacecraft
Bus & Motor
YUBILYENIY, Unknown motor
Mass
~2,420 kg wet, ~50 kg dry
Launch date (UTC)
2019-12-26 (6 years ago)
Launch vehicle
ROKOT
Launch site
Plesetsk Missile And Space Complex (PKMTR)
Object type
Payload
Rocket body
Debris
Shape & HBR
Unknown
Radar Cross Section
Large (>1 m²)

Expand to show TLE details & history
Last TLE update: 5 hours ago

TLE from 5 hours ago
0 BREEZE-KM R/B
1 44909U 19096E   26036.50653489  .00000015  00000-0  87456-5 0  9999
2 44909  82.5170  67.2110 0218636  92.2775 270.3376 12.79746770285504
Epoch: 2026-02-05T12:09Z
TLE epoch observation values (Epoch: 2026-02-05T12:09:24.614Z)
Latitude
-0.00003°
Longitude
109.20066°
Altitude
1,347.94 km
Speed
7.183 km/s
True Right ascension
04h 28m 50s
True Declination
0° 00' 00"
Sunlit
Object was in daylight at epoch
Visualization orbit readout
Latitude
Unknown
Longitude
Unknown
Altitude
Unknown
Speed
Unknown
Apparent Right ascension
Unknown
Apparent Declination
Unknown
Sunlit
N/A
Visualization observer readout
Local Sidereal Time
19:07:53
Azimuth
Unknown
Elevation
Unknown
Doppler factor
Unknown
Orbital elements
Apogee altitude
1,508.526 km
Perigee altitude
1,171.043 km
Semi-major axis
7,717.922 km
Eccentricity
0.02186
Inclination
82.517°
RAAN
67.211°
Arg. of periapsis
92.2775°
True anomaly
267.83265°
Mean anomaly
270.3376°
Eccentric anomaly
269.08507°
Mean motion
3.20105 °/min
Orbital period
112.46 mins
BSTAR
0.0000087456
Loading maneuver chart data...
Computing Atmospheric mass density...
Loading historical data...
Loading historical data...
Loading historical data...
Loading historical data...
Loading historical data...
Loading historical data...
Loading historical data...

Documentation

Showing up to 5 results
|